UPS110 BIKF-EKCH

Flight info

Callsign UPS110
Flight time N/A
Altitude 35000
Route OSKUM DCT 62N010W DCT PEPIN DCT RAMUD P614 RERPA DCT ABINO T56 TESPI
Aircraft MD11/H-VGDW/C

Departure

Time N/A
Airport Keflavik International Airport (BIKF)

Arrival

Time 2026-05-01 09:31
Airport Copenhagen Kastrup Airport (EKCH)
Time Latitude Longitude Altitude Speed Heading
2026-05-01 07:23 63.10208 -16.00489 34843 ft 527 kts 112°
2026-05-01 07:24 63.06626 -15.77539 34848 ft 526 kts 112°
2026-05-01 07:24 63.04216 -15.62260 34844 ft 526 kts 113°
2026-05-01 07:25 63.01812 -15.47153 34845 ft 526 kts 113°
2026-05-01 07:25 62.99376 -15.31967 34846 ft 525 kts 113°
2026-05-01 07:26 62.96926 -15.16818 34848 ft 525 kts 113°
2026-05-01 07:26 62.94402 -15.01748 34852 ft 524 kts 114°
2026-05-01 07:27 62.91889 -14.86844 34852 ft 524 kts 114°
2026-05-01 07:27 62.89384 -14.71827 34856 ft 523 kts 114°
2026-05-01 07:28 62.86886 -14.56864 34858 ft 523 kts 114°
2026-05-01 07:28 62.84375 -14.41942 34858 ft 522 kts 114°
2026-05-01 07:29 62.82274 -14.29557 34862 ft 521 kts 114°
2026-05-01 07:29 62.79735 -14.14705 34862 ft 521 kts 115°
2026-05-01 07:30 62.77183 -13.99897 34869 ft 520 kts 115°
2026-05-01 07:30 62.74613 -13.85102 34880 ft 520 kts 115°
2026-05-01 07:31 62.72053 -13.70474 34874 ft 520 kts 115°
2026-05-01 07:32 62.65495 -13.33805 34881 ft 518 kts 116°
2026-05-01 07:33 62.61500 -13.12079 34886 ft 517 kts 116°
2026-05-01 07:33 62.57530 -12.90303 34891 ft 516 kts 116°
2026-05-01 07:34 62.53549 -12.68667 34899 ft 516 kts 117°
2026-05-01 07:35 62.50869 -12.54248 34906 ft 515 kts 117°
2026-05-01 07:35 62.48196 -12.39974 34904 ft 515 kts 117°
2026-05-01 07:36 62.45490 -12.25629 34911 ft 514 kts 117°
2026-05-01 07:36 62.42775 -12.11340 34915 ft 514 kts 117°
2026-05-01 07:37 62.38678 -11.89969 34920 ft 513 kts 118°
2026-05-01 07:37 62.35944 -11.75873 34921 ft 512 kts 118°
2026-05-01 07:38 62.33120 -11.61777 34931 ft 512 kts 118°
2026-05-01 07:39 62.28916 -11.40655 34938 ft 512 kts 118°
2026-05-01 07:39 62.24746 -11.19643 34941 ft 511 kts 118°
2026-05-01 07:40 62.21945 -11.05648 34941 ft 510 kts 119°
2026-05-01 07:40 62.19128 -10.91678 34949 ft 510 kts 119°
2026-05-01 07:41 62.16301 -10.77757 34954 ft 509 kts 119°
2026-05-01 07:42 62.12041 -10.56958 34963 ft 509 kts 120°
2026-05-01 07:42 62.09187 -10.43139 34965 ft 508 kts 120°
2026-05-01 07:43 62.06341 -10.29454 34969 ft 508 kts 120°
2026-05-01 07:43 62.01997 -10.08858 34972 ft 507 kts 121°
2026-05-01 07:44 61.96946 -9.80637 34984 ft 514 kts 114°
2026-05-01 07:45 61.94789 -9.66149 34988 ft 514 kts 114°
2026-05-01 07:45 61.92600 -9.51810 34993 ft 513 kts 114°
2026-05-01 07:46 61.90355 -9.37441 34993 ft 513 kts 115°
2026-05-01 07:47 61.86943 -9.15901 35003 ft 513 kts 115°
2026-05-01 07:47 61.84657 -9.01608 35013 ft 517 kts 115°
2026-05-01 07:48 61.81158 -8.79931 35013 ft 520 kts 115°
2026-05-01 07:48 61.78794 -8.65418 35015 ft 521 kts 115°
2026-05-01 07:49 61.75220 -8.43699 35020 ft 521 kts 116°
2026-05-01 07:50 61.72793 -8.29286 35023 ft 521 kts 116°
2026-05-01 07:50 61.69093 -8.07816 35028 ft 521 kts 116°
2026-05-01 07:51 61.66644 -7.93436 35034 ft 521 kts 116°
2026-05-01 07:52 61.62964 -7.71914 35040 ft 520 kts 116°
2026-05-01 07:52 61.60513 -7.57727 35046 ft 520 kts 116°
2026-05-01 07:53 61.56782 -7.36348 35048 ft 519 kts 116°
2026-05-01 07:53 61.54278 -7.22133 35057 ft 519 kts 116°
2026-05-01 07:55 61.47976 -6.86827 35057 ft 518 kts 117°
2026-05-01 07:56 61.41485 -6.51702 35055 ft 517 kts 118°
2026-05-01 07:57 61.37578 -6.30689 35059 ft 518 kts 117°
2026-05-01 07:58 61.32367 -6.02763 35058 ft 519 kts 118°
2026-05-01 07:59 61.27070 -5.74810 35062 ft 519 kts 118°
2026-05-01 08:00 61.19014 -5.33050 35065 ft 520 kts 118°
2026-05-01 08:01 61.13541 -5.05313 35069 ft 519 kts 120°
2026-05-01 08:02 61.09356 -4.84718 35069 ft 520 kts 119°
2026-05-01 08:03 61.05193 -4.64029 35067 ft 520 kts 119°
2026-05-01 08:03 61.01010 -4.43381 35075 ft 519 kts 119°
2026-05-01 08:04 60.95403 -4.16059 35073 ft 518 kts 120°
2026-05-01 08:05 60.91154 -3.95597 35071 ft 518 kts 120°
2026-05-01 08:06 60.86894 -3.75283 35072 ft 517 kts 120°
2026-05-01 08:07 60.81135 -3.48261 35075 ft 516 kts 120°
2026-05-01 08:08 60.76727 -3.28150 35078 ft 515 kts 120°
2026-05-01 08:09 60.70925 -3.01453 35081 ft 515 kts 120°
2026-05-01 08:09 60.68004 -2.88107 35080 ft 514 kts 120°
2026-05-01 08:10 60.62126 -2.61531 35084 ft 513 kts 120°
2026-05-01 08:11 60.56212 -2.35128 35085 ft 512 kts 120°
2026-05-01 08:12 60.51765 -2.15485 35088 ft 512 kts 120°
2026-05-01 08:13 60.47259 -1.95845 35088 ft 511 kts 121°
2026-05-01 08:13 60.42670 -1.76367 35091 ft 511 kts 120°
2026-05-01 08:14 60.39634 -1.63370 35102 ft 511 kts 120°
2026-05-01 08:14 60.36604 -1.50402 35100 ft 510 kts 120°
2026-05-01 08:15 60.32026 -1.30953 35106 ft 510 kts 120°
2026-05-01 08:16 60.29484 -1.20235 35107 ft 509 kts 120°
2026-05-01 08:16 60.25911 -1.05266 35103 ft 509 kts 120°
2026-05-01 08:17 60.22829 -0.92434 35103 ft 508 kts 120°
2026-05-01 08:17 60.20241 -0.81718 35107 ft 508 kts 120°
2026-05-01 08:18 60.17161 -0.69030 35103 ft 507 kts 120°
2026-05-01 08:19 60.10921 -0.43647 35111 ft 506 kts 121°
2026-05-01 08:19 60.07739 -0.31056 35112 ft 506 kts 121°
2026-05-01 08:20 60.04580 -0.18460 35116 ft 506 kts 121°
2026-05-01 08:20 60.01269 -0.06084 35119 ft 502 kts 126°
2026-05-01 08:21 59.97501 0.05630 35126 ft 500 kts 128°
2026-05-01 08:21 59.93637 0.17187 35126 ft 500 kts 128°
2026-05-01 08:22 59.89819 0.28690 35132 ft 500 kts 128°
2026-05-01 08:22 59.85990 0.40275 35138 ft 500 kts 128°
2026-05-01 08:23 59.82165 0.51815 35148 ft 500 kts 128°
2026-05-01 08:23 59.78326 0.63333 35140 ft 499 kts 128°
2026-05-01 08:24 59.74479 0.74815 35154 ft 499 kts 128°
2026-05-01 08:24 59.70626 0.86255 35157 ft 499 kts 128°
2026-05-01 08:25 59.66783 0.97611 35157 ft 498 kts 128°
2026-05-01 08:25 59.62933 1.08934 35156 ft 498 kts 128°
2026-05-01 08:26 59.59058 1.20274 35164 ft 498 kts 128°
2026-05-01 08:26 59.55155 1.31561 35164 ft 497 kts 129°
2026-05-01 08:27 59.51219 1.42774 35171 ft 497 kts 129°
2026-05-01 08:27 59.47328 1.53921 35173 ft 497 kts 129°
2026-05-01 08:28 59.43421 1.65133 35175 ft 496 kts 129°
2026-05-01 08:28 59.39509 1.76318 35182 ft 496 kts 129°
2026-05-01 08:29 59.35592 1.87461 35184 ft 496 kts 129°
2026-05-01 08:29 59.31664 1.98577 35189 ft 496 kts 129°
2026-05-01 08:30 59.27747 2.09612 35189 ft 496 kts 129°
2026-05-01 08:30 59.23799 2.20679 35192 ft 496 kts 129°
2026-05-01 08:31 59.19843 2.31718 35196 ft 496 kts 129°
2026-05-01 08:31 59.15880 2.42727 35200 ft 496 kts 129°
2026-05-01 08:32 59.11906 2.53714 35201 ft 496 kts 130°
2026-05-01 08:32 59.07907 2.64649 35209 ft 495 kts 130°
2026-05-01 08:33 59.03879 2.75500 35210 ft 495 kts 130°
2026-05-01 08:33 58.99862 2.86375 35216 ft 495 kts 130°
2026-05-01 08:34 58.95885 2.97162 35225 ft 495 kts 130°
2026-05-01 08:34 58.91873 3.08008 35231 ft 495 kts 130°
2026-05-01 08:35 58.87852 3.18825 35234 ft 494 kts 130°
2026-05-01 08:35 58.83827 3.29598 35240 ft 494 kts 130°
2026-05-01 08:36 58.79793 3.40347 35239 ft 494 kts 130°
2026-05-01 08:36 58.75782 3.50986 35249 ft 493 kts 130°
2026-05-01 08:37 58.71735 3.61673 35248 ft 493 kts 130°
2026-05-01 08:37 58.67682 3.72326 35262 ft 493 kts 130°
2026-05-01 08:38 58.63625 3.82941 35262 ft 493 kts 130°
2026-05-01 08:38 58.59545 3.93526 35267 ft 492 kts 131°
2026-05-01 08:39 58.55452 4.03966 35270 ft 492 kts 131°
2026-05-01 08:39 58.51355 4.14466 35275 ft 492 kts 131°
2026-05-01 08:40 58.45210 4.30238 35287 ft 492 kts 130°
2026-05-01 08:40 58.41115 4.40701 35287 ft 492 kts 131°
2026-05-01 08:41 58.37037 4.51071 35293 ft 491 kts 131°
2026-05-01 08:41 58.32931 4.61463 35293 ft 491 kts 131°
2026-05-01 08:42 58.28815 4.71836 35300 ft 491 kts 131°
2026-05-01 08:42 58.24686 4.82195 35306 ft 491 kts 131°
2026-05-01 08:43 58.20558 4.92510 35304 ft 491 kts 131°
2026-05-01 08:43 58.16443 5.02743 35313 ft 491 kts 131°
2026-05-01 08:44 58.12290 5.13030 35314 ft 491 kts 131°
2026-05-01 08:44 58.08111 5.23234 35319 ft 490 kts 131°
2026-05-01 08:45 58.03917 5.33393 35316 ft 490 kts 131°
2026-05-01 08:45 57.99735 5.43572 35326 ft 490 kts 131°
2026-05-01 08:46 57.95556 5.53746 35330 ft 490 kts 131°
2026-05-01 08:46 57.91405 5.63815 35322 ft 490 kts 131°
2026-05-01 08:47 57.87221 5.73915 35339 ft 490 kts 131°
2026-05-01 08:47 57.83023 5.84005 35332 ft 489 kts 131°
2026-05-01 08:48 57.78819 5.94065 35340 ft 489 kts 131°
2026-05-01 08:48 57.74611 6.04094 35343 ft 489 kts 131°
2026-05-01 08:49 57.70426 6.14028 35343 ft 489 kts 131°
2026-05-01 08:49 57.66208 6.23994 35348 ft 489 kts 131°
2026-05-01 08:50 57.61982 6.33941 35350 ft 488 kts 131°
2026-05-01 08:50 57.57731 6.43845 35353 ft 488 kts 131°
2026-05-01 08:51 57.53474 6.53634 35356 ft 488 kts 131°
2026-05-01 08:51 57.49211 6.63485 35358 ft 488 kts 131°
2026-05-01 08:52 57.44952 6.73338 35359 ft 488 kts 131°
2026-05-01 08:52 57.40693 6.83162 35360 ft 488 kts 131°
2026-05-01 08:53 57.36425 6.92961 35361 ft 488 kts 131°
2026-05-01 08:53 57.32151 7.02732 35362 ft 488 kts 131°
2026-05-01 08:54 57.27890 7.12433 35366 ft 488 kts 131°
2026-05-01 08:54 57.23595 7.22172 35362 ft 488 kts 130°
2026-05-01 08:55 57.19326 7.31814 35366 ft 487 kts 130°
2026-05-01 08:55 57.15019 7.41500 35372 ft 487 kts 130°
2026-05-01 08:56 57.10713 7.51146 35373 ft 487 kts 130°
2026-05-01 08:56 57.06087 7.60181 35373 ft 484 kts 142°
2026-05-01 08:57 57.00483 7.66830 35377 ft 482 kts 153°
2026-05-01 08:57 56.94512 7.72442 35374 ft 482 kts 154°
2026-05-01 08:58 56.88571 7.78185 35379 ft 483 kts 152°
2026-05-01 08:58 56.82671 7.84106 35381 ft 483 kts 152°
2026-05-01 08:59 56.76786 7.90060 35387 ft 483 kts 152°
2026-05-01 08:59 56.71330 7.97203 35387 ft 485 kts 136°
2026-05-01 09:00 56.67219 8.06805 35387 ft 486 kts 120°
2026-05-01 09:00 56.64435 8.18012 35382 ft 486 kts 112°
2026-05-01 09:01 56.61911 8.29395 35386 ft 486 kts 113°
2026-05-01 09:01 56.59223 8.40634 35385 ft 485 kts 114°
2026-05-01 09:02 56.56437 8.51768 35383 ft 484 kts 115°
2026-05-01 09:02 56.53630 8.62850 35387 ft 483 kts 115°
2026-05-01 09:03 56.51298 8.72031 35385 ft 482 kts 115°
2026-05-01 09:03 56.48489 8.83059 35391 ft 482 kts 115°
2026-05-01 09:04 56.45215 8.95850 35395 ft 481 kts 115°
2026-05-01 09:04 56.42854 9.05030 35396 ft 480 kts 115°
2026-05-01 09:05 56.40047 9.15891 35400 ft 480 kts 115°
2026-05-01 09:05 56.37214 9.26799 35400 ft 479 kts 115°
2026-05-01 09:06 56.34378 9.37664 35398 ft 479 kts 115°
2026-05-01 09:06 56.32938 9.43073 35038 ft 476 kts 115°
2026-05-01 09:06 56.31510 9.48392 34540 ft 469 kts 115°
2026-05-01 09:07 56.30094 9.53674 34042 ft 469 kts 115°
2026-05-01 09:07 56.28674 9.58998 33548 ft 471 kts 115°
2026-05-01 09:07 56.27261 9.64315 33066 ft 472 kts 115°
2026-05-01 09:07 56.25843 9.69657 32596 ft 473 kts 115°
2026-05-01 09:08 56.24422 9.75008 32124 ft 475 kts 115°
2026-05-01 09:08 56.23011 9.80309 31671 ft 476 kts 115°
2026-05-01 09:08 56.21577 9.85684 31216 ft 477 kts 116°
2026-05-01 09:08 56.20138 9.91065 30779 ft 479 kts 116°
2026-05-01 09:09 56.18689 9.96470 30323 ft 480 kts 116°
2026-05-01 09:09 56.17236 10.01876 29811 ft 481 kts 116°
2026-05-01 09:09 56.15779 10.07283 29341 ft 482 kts 116°
2026-05-01 09:09 56.14312 10.12717 28876 ft 483 kts 116°
2026-05-01 09:10 56.12839 10.18154 28417 ft 484 kts 116°
2026-05-01 09:10 56.11367 10.23581 27968 ft 484 kts 116°
2026-05-01 09:10 56.09916 10.28913 27528 ft 480 kts 116°
2026-05-01 09:10 56.08456 10.34268 27087 ft 476 kts 116°
2026-05-01 09:11 56.07007 10.39569 26656 ft 472 kts 116°
2026-05-01 09:11 56.05571 10.44811 26231 ft 467 kts 117°
2026-05-01 09:11 56.04143 10.50011 25812 ft 463 kts 117°
2026-05-01 09:11 56.02723 10.55171 25388 ft 459 kts 117°
2026-05-01 09:12 56.01329 10.60225 24978 ft 446 kts 117°
2026-05-01 09:12 56.00027 10.65206 24575 ft 440 kts 110°
2026-05-01 09:12 55.99296 10.70492 24158 ft 438 kts 97°
2026-05-01 09:12 55.99093 10.75842 23672 ft 436 kts 92°
2026-05-01 09:13 55.99022 10.81253 23152 ft 434 kts 92°
2026-05-01 09:13 55.98903 10.86621 22636 ft 431 kts 94°
2026-05-01 09:13 55.98697 10.91948 22016 ft 428 kts 95°
2026-05-01 09:13 55.98416 10.97191 21401 ft 419 kts 96°
2026-05-01 09:14 55.98094 11.02307 20791 ft 411 kts 97°
2026-05-01 09:14 55.97750 11.07333 20196 ft 403 kts 97°
2026-05-01 09:14 55.97401 11.12261 19622 ft 396 kts 98°
2026-05-01 09:14 55.97054 11.17099 19048 ft 390 kts 98°
2026-05-01 09:15 55.96710 11.21865 18441 ft 385 kts 98°
2026-05-01 09:15 55.96368 11.26592 17809 ft 382 kts 98°
2026-05-01 09:15 55.96028 11.31276 17178 ft 378 kts 98°
2026-05-01 09:15 55.95690 11.35909 16569 ft 375 kts 98°
2026-05-01 09:16 55.95358 11.40445 15980 ft 372 kts 98°
2026-05-01 09:16 55.95023 11.45005 15393 ft 369 kts 98°
2026-05-01 09:16 55.94690 11.49522 14811 ft 366 kts 98°
2026-05-01 09:17 55.94024 11.58462 13610 ft 361 kts 98°
2026-05-01 09:17 55.93691 11.62898 12983 ft 358 kts 98°
2026-05-01 09:17 55.93030 11.71659 11775 ft 353 kts 99°
2026-05-01 09:18 55.92708 11.75902 11568 ft 332 kts 99°
2026-05-01 09:18 55.92129 11.83497 10839 ft 299 kts 99°
2026-05-01 09:19 55.91569 11.90713 10113 ft 293 kts 99°
2026-05-01 09:19 55.91289 11.94303 9675 ft 292 kts 99°
2026-05-01 09:19 55.91009 11.97880 9269 ft 290 kts 99°
2026-05-01 09:20 55.90452 12.04974 8506 ft 288 kts 99°
2026-05-01 09:20 55.89881 12.11854 7776 ft 284 kts 100°
2026-05-01 09:21 55.89289 12.18784 7025 ft 281 kts 99°
2026-05-01 09:21 55.89001 12.22229 6671 ft 280 kts 99°
2026-05-01 09:21 55.88436 12.29087 5846 ft 280 kts 99°
2026-05-01 09:22 55.87875 12.35927 5132 ft 278 kts 98°
2026-05-01 09:22 55.87301 12.42701 4458 ft 276 kts 98°
2026-05-01 09:23 55.87001 12.46071 4131 ft 275 kts 98°
2026-05-01 09:23 55.86380 12.52796 3384 ft 274 kts 98°
2026-05-01 09:24 55.85723 12.59440 2952 ft 267 kts 98°
2026-05-01 09:24 55.85390 12.62666 2953 ft 268 kts 98°
2026-05-01 09:24 55.84712 12.69207 2949 ft 268 kts 99°
2026-05-01 09:25 55.83801 12.75488 2931 ft 251 kts 122°
2026-05-01 09:25 55.81460 12.80024 2957 ft 249 kts 135°
2026-05-01 09:26 55.80228 12.82201 2956 ft 250 kts 135°
2026-05-01 09:26 55.77502 12.85903 2944 ft 248 kts 167°
2026-05-01 09:26 55.75842 12.86003 2962 ft 229 kts 191°
2026-05-01 09:27 55.73427 12.83655 2910 ft 192 kts 224°
2026-05-01 09:27 55.72421 12.82109 2650 ft 189 kts 224°
2026-05-01 09:27 55.71434 12.80587 2403 ft 186 kts 224°
2026-05-01 09:28 55.70486 12.79123 2137 ft 178 kts 225°
2026-05-01 09:28 55.69567 12.77692 1893 ft 173 kts 224°
2026-05-01 09:28 55.68666 12.76291 1670 ft 171 kts 224°
2026-05-01 09:28 55.67775 12.74902 1429 ft 169 kts 224°
2026-05-01 09:29 55.66022 12.72183 978 ft 165 kts 223°
2026-05-01 09:29 55.65152 12.70846 708 ft 166 kts 222°
2026-05-01 09:30 55.63395 12.68088 263 ft 170 kts 219°
2026-05-01 09:30 55.62515 12.66716 95 ft 172 kts 220°
2026-05-01 09:30 55.61096 12.64516 31 ft 95 kts 221°
2026-05-01 09:31 55.60747 12.63986 33 ft 33 kts 220°
2026-05-01 09:31 55.60696 12.63860 32 ft 7 kts 268°
2026-05-01 09:31 55.60759 12.63653 31 ft 11 kts 311°
2026-05-01 09:32 55.60781 12.63618 31 ft 2 kts 323°
2026-05-01 09:32 55.60850 12.63619 31 ft 9 kts 22°
2026-05-01 09:32 55.60911 12.63687 31 ft 11 kts 34°
2026-05-01 09:33 55.60969 12.63754 31 ft 9 kts 33°
2026-05-01 09:33 55.61024 12.63817 31 ft 11 kts 33°
2026-05-01 09:33 55.61175 12.63989 30 ft 15 kts 33°
2026-05-01 09:34 55.61268 12.64097 31 ft 17 kts 33°
2026-05-01 09:34 55.61363 12.64206 31 ft 16 kts 33°
2026-05-01 09:34 55.61539 12.64410 31 ft 15 kts 33°
2026-05-01 09:35 55.61625 12.64507 31 ft 14 kts 33°
2026-05-01 09:35 55.61789 12.64696 31 ft 14 kts 33°
2026-05-01 09:35 55.61869 12.64787 31 ft 13 kts 33°
2026-05-01 09:36 55.61947 12.64877 31 ft 13 kts 32°
2026-05-01 09:36 55.62001 12.64947 31 ft 5 kts 57°
2026-05-01 09:36 55.62002 12.65010 31 ft 7 kts 99°
2026-05-01 09:36 55.61972 12.65118 30 ft 12 kts 121°
2026-05-01 09:37 55.61917 12.65264 29 ft 17 kts 123°
2026-05-01 09:37 55.61796 12.65594 31 ft 17 kts 123°
2026-05-01 09:37 55.61731 12.65770 33 ft 16 kts 123°
2026-05-01 09:38 55.61620 12.66068 33 ft 14 kts 123°
2026-05-01 09:38 55.61557 12.66239 30 ft 19 kts 123°
2026-05-01 09:38 55.61478 12.66454 31 ft 22 kts 123°
2026-05-01 09:39 55.61317 12.66884 32 ft 16 kts 123°
2026-05-01 09:39 55.61281 12.66989 32 ft 5 kts 116°
2026-05-01 09:39 55.61288 12.67050 32 ft 6 kts 58°
2026-05-01 09:40 55.61334 12.67110 32 ft 10 kts 26°
2026-05-01 09:40 55.61478 12.67110 30 ft 10 kts 348°
2026-05-01 09:40 55.61544 12.67086 31 ft 9 kts 348°
2026-05-01 09:41 55.61599 12.67068 31 ft 6 kts 353°
2026-05-01 09:41 55.61627 12.67123 31 ft 3 kts 73°
2026-05-01 09:41 55.61632 12.67158 31 ft 2 kts 78°
2026-05-01 09:42 55.61634 12.67176 31 ft 1 kts 80°
2026-05-01 09:42 55.61636 12.67196 31 ft 2 kts 79°
2026-05-01 09:42 55.61639 12.67220 31 ft 0 kts 79°